owner,sensor,date,latitude,longitude,vertical_datum,sea_water_speed,direction_of_sea_water_velocity,upward_sea_water_velocity,qcFlag
Kerr-McGee,ioos:station:wmo:42373:1,2021-02-01T00:05:00Z,27.3539,-94.6254,79.0,17.2,351.6,-9999.0,'111111111,111111111,999999991'
Kerr-McGee,ioos:station:wmo:42373:1,2021-02-01T00:25:00Z,27.3539,-94.6254,79.0,15.6,355.6,-9999.0,'111111111,111111111,999999991'
Kerr-McGee,ioos:station:wmo:42373:1,2021-02-01T00:45:00Z,27.3539,-94.6254,79.0,15.1,2.7,-9999.0,'111111111,111111111,999999991'
Kerr-McGee,ioos:station:wmo:42373:1,2021-02-01T01:05:00Z,27.3539,-94.6254,79.0,15.0,2.7,-9999.0,'111111111,111111111,999999991'
Kerr-McGee,ioos:station:wmo:42373:1,2021-02-01T01:25:00Z,27.3539,-94.6254,79.0,15.3,6.8,-9999.0,'111111111,111111111,999999991'
Kerr-McGee,ioos:station:wmo:42373:1,2021-02-01T01:45:00Z,27.3539,-94.6254,79.0,15.3,1.9,-9999.0,'111111111,111111111,999999991'
Kerr-McGee,ioos:station:wmo:42373:1,2021-02-01T02:05:00Z,27.3539,-94.6254,79.0,16.6,2.4,-9999.0,'111111111,111111111,999999991'
Kerr-McGee,ioos:station:wmo:42373:1,2021-02-01T02:25:00Z,27.3539,-94.6254,79.0,17.7,2.6,-9999.0,'111111111,111111111,999999991'
Kerr-McGee,ioos:station:wmo:42373:1,2021-02-01T02:45:00Z,27.3539,-94.6254,79.0,17.8,2.6,-9999.0,'111111111,111111111,999999991'
Kerr-McGee,ioos:station:wmo:42373:1,2021-02-01T03:05:00Z,27.3539,-94.6254,79.0,18.1,357.8,-9999.0,'111111111,111111111,999999991'
Kerr-McGee,ioos:station:wmo:42373:1,2021-02-01T03:25:00Z,27.3539,-94.6254,79.0,16.8,5.8,-9999.0,'111111111,111111111,999999991'
Kerr-McGee,ioos:station:wmo:42373:1,2021-02-01T03:45:00Z,27.3539,-94.6254,79.0,17.3,0.7,-9999.0,'111111111,111111111,999999991'
Kerr-McGee,ioos:station:wmo:42373:1,2021-02-01T04:05:00Z,27.3539,-94.6254,79.0,19.2,7.8,-9999.0,'111111111,111111111,999999991'
Kerr-McGee,ioos:station:wmo:42373:1,2021-02-01T04:25:00Z,27.3539,-94.6254,79.0,18.0,4.1,-9999.0,'111111111,111111111,999999991'
Kerr-McGee,ioos:station:wmo:42373:1,2021-02-01T04:45:00Z,27.3539,-94.6254,79.0,17.4,24.5,-9999.0,'111111111,111111111,999999991'
Kerr-McGee,ioos:station:wmo:42373:1,2021-02-01T05:05:00Z,27.3539,-94.6254,79.0,16.5,8.4,-9999.0,'111111111,111111111,999999991'
Kerr-McGee,ioos:station:wmo:42373:1,2021-02-01T05:25:00Z,27.3539,-94.6254,79.0,15.3,3.4,-9999.0,'111111111,111111111,999999991'
Kerr-McGee,ioos:station:wmo:42373:1,2021-02-01T05:45:00Z,27.3539,-94.6254,79.0,16.2,8.5,-9999.0,'111111111,111111111,999999991'
Kerr-McGee,ioos:station:wmo:42373:1,2021-02-01T06:05:00Z,27.3539,-94.6254,79.0,15.1,17.0,-9999.0,'111111111,111111111,999999991'
Kerr-McGee,ioos:station:wmo:42373:1,2021-02-01T06:25:00Z,27.3539,-94.6254,79.0,16.2,25.6,-9999.0,'111111111,111111111,999999991'
Kerr-McGee,ioos:station:wmo:42373:1,2021-02-01T06:45:00Z,27.3539,-94.6254,79.0,16.7,25.2,-9999.0,'111111111,111111111,999999991'
Kerr-McGee,ioos:station:wmo:42373:1,2021-02-01T07:05:00Z,27.3539,-94.6254,79.0,18.1,16.7,-9999.0,'111111111,111111111,999999991'
Kerr-McGee,ioos:station:wmo:42373:1,2021-02-01T07:25:00Z,27.3539,-94.6254,79.0,17.0,19.6,-9999.0,'111111111,111111111,999999991'
Kerr-McGee,ioos:station:wmo:42373:1,2021-02-01T07:45:00Z,27.3539,-94.6254,79.0,19.8,33.4,-9999.0,'111111111,111111111,999999991'
Kerr-McGee,ioos:station:wmo:42373:1,2021-02-01T08:05:00Z,27.3539,-94.6254,79.0,21.3,30.2,-9999.0,'111111111,111111111,999999991'
Kerr-McGee,ioos:station:wmo:42373:1,2021-02-01T08:25:00Z,27.3539,-94.6254,79.0,20.2,5.4,-9999.0,'111111111,111111111,999999991'
Kerr-McGee,ioos:station:wmo:42373:1,2021-02-01T08:45:00Z,27.3539,-94.6254,79.0,19.9,354.2,-9999.0,'111111111,111111111,999999991'
Kerr-McGee,ioos:station:wmo:42373:1,2021-02-01T09:05:00Z,27.3539,-94.6254,79.0,21.9,346.3,-9999.0,'111111111,111111111,999999991'
Kerr-McGee,ioos:station:wmo:42373:1,2021-02-01T09:25:00Z,27.3539,-94.6254,79.0,24.1,336.5,-9999.0,'111111111,111111111,999999991'
Kerr-McGee,ioos:station:wmo:42373:1,2021-02-01T09:45:00Z,27.3539,-94.6254,79.0,24.5,336.7,-9999.0,'111111111,111111111,999999991'
Kerr-McGee,ioos:station:wmo:42373:1,2021-02-01T10:05:00Z,27.3539,-94.6254,79.0,24.2,356.5,-9999.0,'111111111,111111111,999999991'
Kerr-McGee,ioos:station:wmo:42373:1,2021-02-01T10:25:00Z,27.3539,-94.6254,79.0,23.0,9.7,-9999.0,'111111111,111111111,999999991'
Kerr-McGee,ioos:station:wmo:42373:1,2021-02-01T10:45:00Z,27.3539,-94.6254,79.0,25.9,17.3,-9999.0,'111111111,111111111,999999991'
Kerr-McGee,ioos:station:wmo:42373:1,2021-02-01T11:05:00Z,27.3539,-94.6254,79.0,26.4,18.3,-9999.0,'111111111,111111111,999999991'
Kerr-McGee,ioos:station:wmo:42373:1,2021-02-01T11:25:00Z,27.3539,-94.6254,79.0,27.3,21.3,-9999.0,'111111111,111111111,999999991'
Kerr-McGee,ioos:station:wmo:42373:1,2021-02-01T11:45:00Z,27.3539,-94.6254,79.0,27.1,22.8,-9999.0,'111111111,111111111,999999991'
Kerr-McGee,ioos:station:wmo:42373:1,2021-02-01T12:05:00Z,27.3539,-94.6254,79.0,27.4,23.2,-9999.0,'111111111,111111111,999999991'
Kerr-McGee,ioos:station:wmo:42373:1,2021-02-01T12:25:00Z,27.3539,-94.6254,79.0,32.2,35.8,-9999.0,'111111111,111111111,999999991'
Kerr-McGee,ioos:station:wmo:42373:1,2021-02-01T12:45:00Z,27.3539,-94.6254,79.0,32.4,33.7,-9999.0,'111111111,111111111,999999991'
Kerr-McGee,ioos:station:wmo:42373:1,2021-02-01T13:05:00Z,27.3539,-94.6254,79.0,33.5,26.0,-9999.0,'111111111,111111111,999999991'
Kerr-McGee,ioos:station:wmo:42373:1,2021-02-01T13:25:00Z,27.3539,-94.6254,79.0,31.6,16.5,-9999.0,'111111111,111111111,999999991'
Kerr-McGee,ioos:station:wmo:42373:1,2021-02-01T13:45:00Z,27.3539,-94.6254,79.0,30.8,7.7,-9999.0,'111111111,111111111,999999991'
Kerr-McGee,ioos:station:wmo:42373:1,2021-02-01T14:05:00Z,27.3539,-94.6254,79.0,31.2,358.2,-9999.0,'111111111,111111111,999999991'
Kerr-McGee,ioos:station:wmo:42373:1,2021-02-01T14:25:00Z,27.3539,-94.6254,79.0,32.3,354.5,-9999.0,'111111111,111111111,999999991'
Kerr-McGee,ioos:station:wmo:42373:1,2021-02-01T14:45:00Z,27.3539,-94.6254,79.0,33.7,353.9,-9999.0,'111111111,111111111,999999991'
Kerr-McGee,ioos:station:wmo:42373:1,2021-02-01T15:05:00Z,27.3539,-94.6254,79.0,34.4,356.0,-9999.0,'111111111,111111111,999999991'
Kerr-McGee,ioos:station:wmo:42373:1,2021-02-01T15:25:00Z,27.3539,-94.6254,79.0,33.5,353.0,-9999.0,'111111111,111111111,999999991'
Kerr-McGee,ioos:station:wmo:42373:1,2021-02-01T15:45:00Z,27.3539,-94.6254,79.0,32.2,353.2,-9999.0,'111111111,111111111,999999991'
Kerr-McGee,ioos:station:wmo:42373:1,2021-02-01T16:05:00Z,27.3539,-94.6254,79.0,29.3,356.3,-9999.0,'111111111,111111111,999999991'
Kerr-McGee,ioos:station:wmo:42373:1,2021-02-01T16:25:00Z,27.3539,-94.6254,79.0,27.2,354.3,-9999.0,'111111111,111111111,999999991'
Kerr-McGee,ioos:station:wmo:42373:1,2021-02-01T16:45:00Z,27.3539,-94.6254,79.0,27.0,353.2,-9999.0,'111111111,111111111,999999991'
Kerr-McGee,ioos:station:wmo:42373:1,2021-02-01T17:05:00Z,27.3539,-94.6254,79.0,27.3,357.1,-9999.0,'111111111,111111111,999999991'
Kerr-McGee,ioos:station:wmo:42373:1,2021-02-01T17:25:00Z,27.3539,-94.6254,79.0,25.7,354.9,-9999.0,'111111111,111111111,999999991'
Kerr-McGee,ioos:station:wmo:42373:1,2021-02-01T17:45:00Z,27.3539,-94.6254,79.0,24.6,0.7,-9999.0,'111111111,111111111,999999991'
Kerr-McGee,ioos:station:wmo:42373:1,2021-02-01T18:05:00Z,27.3539,-94.6254,79.0,25.0,359.3,-9999.0,'111111111,111441111,999999991'
Kerr-McGee,ioos:station:wmo:42373:1,2021-02-01T18:25:00Z,27.3539,-94.6254,79.0,26.9,2.8,-9999.0,'111111111,111111111,999999991'
Kerr-McGee,ioos:station:wmo:42373:1,2021-02-01T18:45:00Z,27.3539,-94.6254,79.0,25.1,0.0,-9999.0,'111111111,111441111,999999991'
Kerr-McGee,ioos:station:wmo:42373:1,2021-02-01T19:05:00Z,27.3539,-94.6254,79.0,24.3,1.7,-9999.0,'111111111,111111111,999999991'
Kerr-McGee,ioos:station:wmo:42373:1,2021-02-01T19:25:00Z,27.3539,-94.6254,79.0,24.1,353.6,-9999.0,'111111111,111111111,999999991'
Kerr-McGee,ioos:station:wmo:42373:1,2021-02-01T19:45:00Z,27.3539,-94.6254,79.0,22.0,350.6,-9999.0,'111111111,111111111,999999991'
Kerr-McGee,ioos:station:wmo:42373:1,2021-02-01T20:05:00Z,27.3539,-94.6254,79.0,20.3,343.4,-9999.0,'111111111,111111111,999999991'
Kerr-McGee,ioos:station:wmo:42373:1,2021-02-01T20:25:00Z,27.3539,-94.6254,79.0,20.6,333.4,-9999.0,'111111111,111111111,999999991'
Kerr-McGee,ioos:station:wmo:42373:1,2021-02-01T20:45:00Z,27.3539,-94.6254,79.0,21.1,328.3,-9999.0,'111111111,111111111,999999991'
Kerr-McGee,ioos:station:wmo:42373:1,2021-02-01T21:05:00Z,27.3539,-94.6254,79.0,19.6,338.1,-9999.0,'111111111,111111111,999999991'
Kerr-McGee,ioos:station:wmo:42373:1,2021-02-01T21:25:00Z,27.3539,-94.6254,79.0,19.1,343.6,-9999.0,'111111111,111111111,999999991'
Kerr-McGee,ioos:station:wmo:42373:1,2021-02-01T21:45:00Z,27.3539,-94.6254,79.0,18.5,345.3,-9999.0,'111111111,111111111,999999991'
Kerr-McGee,ioos:station:wmo:42373:1,2021-02-01T22:05:00Z,27.3539,-94.6254,79.0,18.9,339.8,-9999.0,'111111111,111111111,999999991'
Kerr-McGee,ioos:station:wmo:42373:1,2021-02-01T22:25:00Z,27.3539,-94.6254,79.0,17.6,336.2,-9999.0,'111111111,111111111,999999991'
Kerr-McGee,ioos:station:wmo:42373:1,2021-02-01T22:45:00Z,27.3539,-94.6254,79.0,17.2,334.2,-9999.0,'111111111,111111111,999999991'
Kerr-McGee,ioos:station:wmo:42373:1,2021-02-01T23:05:00Z,27.3539,-94.6254,79.0,15.9,333.4,-9999.0,'111111111,111111111,999999991'
Kerr-McGee,ioos:station:wmo:42373:1,2021-02-01T23:25:00Z,27.3539,-94.6254,79.0,14.9,331.9,-9999.0,'111111111,111111111,999999991'
Kerr-McGee,ioos:station:wmo:42373:1,2021-02-01T23:45:00Z,27.3539,-94.6254,79.0,14.7,317.5,-9999.0,'111111111,111111111,999999991'
Kerr-McGee,ioos:station:wmo:42373:1,2021-02-02T00:05:00Z,27.3539,-94.6254,79.0,15.0,313.4,-9999.0,'111111111,111111111,999999991'
Kerr-McGee,ioos:station:wmo:42373:1,2021-02-02T00:25:00Z,27.3539,-94.6254,79.0,15.0,306.0,-9999.0,'111111111,111111111,999999991'
Kerr-McGee,ioos:station:wmo:42373:1,2021-02-02T00:45:00Z,27.3539,-94.6254,79.0,12.7,304.4,-9999.0,'111111111,111111111,999999991'
Kerr-McGee,ioos:station:wmo:42373:1,2021-02-02T01:05:00Z,27.3539,-94.6254,79.0,8.5,308.8,-9999.0,'111111111,111111111,999999991'
Kerr-McGee,ioos:station:wmo:42373:1,2021-02-02T01:25:00Z,27.3539,-94.6254,79.0,11.0,290.3,-9999.0,'111111111,111111111,999999991'
Kerr-McGee,ioos:station:wmo:42373:1,2021-02-02T01:45:00Z,27.3539,-94.6254,79.0,8.8,311.3,-9999.0,'111111111,111111111,999999991'
Kerr-McGee,ioos:station:wmo:42373:1,2021-02-02T02:05:00Z,27.3539,-94.6254,79.0,10.2,281.3,-9999.0,'111111111,111111111,999999991'
Kerr-McGee,ioos:station:wmo:42373:1,2021-02-02T02:25:00Z,27.3539,-94.6254,79.0,11.6,271.5,-9999.0,'111111111,111111111,999999991'
Kerr-McGee,ioos:station:wmo:42373:1,2021-02-02T02:45:00Z,27.3539,-94.6254,79.0,11.8,268.1,-9999.0,'111111111,111111111,999999991'
Kerr-McGee,ioos:station:wmo:42373:1,2021-02-02T03:05:00Z,27.3539,-94.6254,79.0,3.6,320.6,-9999.0,'111111111,111111111,999999991'
Kerr-McGee,ioos:station:wmo:42373:1,2021-02-02T03:25:00Z,27.3539,-94.6254,79.0,5.2,17.7,-9999.0,'111111111,111111111,999999991'
Kerr-McGee,ioos:station:wmo:42373:1,2021-02-02T03:45:00Z,27.3539,-94.6254,79.0,6.7,356.6,-9999.0,'111111111,111111111,999999991'
Kerr-McGee,ioos:station:wmo:42373:1,2021-02-02T04:05:00Z,27.3539,-94.6254,79.0,7.7,8.2,-9999.0,'111111111,111111111,999999991'
Kerr-McGee,ioos:station:wmo:42373:1,2021-02-02T04:25:00Z,27.3539,-94.6254,79.0,8.1,350.1,-9999.0,'111111111,111111111,999999991'
Kerr-McGee,ioos:station:wmo:42373:1,2021-02-02T04:45:00Z,27.3539,-94.6254,79.0,7.7,0.0,-9999.0,'111111111,111441111,999999991'
Kerr-McGee,ioos:station:wmo:42373:1,2021-02-02T05:05:00Z,27.3539,-94.6254,79.0,8.1,355.8,-9999.0,'111111111,111111111,999999991'
Kerr-McGee,ioos:station:wmo:42373:1,2021-02-02T05:25:00Z,27.3539,-94.6254,79.0,8.1,10.6,-9999.0,'111111111,111111111,999999991'
Kerr-McGee,ioos:station:wmo:42373:1,2021-02-02T05:45:00Z,27.3539,-94.6254,79.0,8.6,4.0,-9999.0,'111111111,111111111,999999991'
Kerr-McGee,ioos:station:wmo:42373:1,2021-02-02T06:05:00Z,27.3539,-94.6254,79.0,8.3,13.9,-9999.0,'111111111,111111111,999999991'
Kerr-McGee,ioos:station:wmo:42373:1,2021-02-02T06:25:00Z,27.3539,-94.6254,79.0,8.8,40.4,-9999.0,'111111111,111111111,999999991'
Kerr-McGee,ioos:station:wmo:42373:1,2021-02-02T06:45:00Z,27.3539,-94.6254,79.0,10.2,48.2,-9999.0,'111111111,111111111,999999991'
Kerr-McGee,ioos:station:wmo:42373:1,2021-02-02T07:05:00Z,27.3539,-94.6254,79.0,10.2,55.4,-9999.0,'111111111,111111111,999999991'
Kerr-McGee,ioos:station:wmo:42373:1,2021-02-02T07:25:00Z,27.3539,-94.6254,79.0,9.6,50.5,-9999.0,'111111111,111111111,999999991'
Kerr-McGee,ioos:station:wmo:42373:1,2021-02-02T07:45:00Z,27.3539,-94.6254,79.0,11.5,55.6,-9999.0,'111111111,111111111,999999991'
Kerr-McGee,ioos:station:wmo:42373:1,2021-02-02T08:05:00Z,27.3539,-94.6254,79.0,12.7,57.2,-9999.0,'111111111,111111111,999999991'
Kerr-McGee,ioos:station:wmo:42373:1,2021-02-02T08:25:00Z,27.3539,-94.6254,79.0,13.1,59.7,-9999.0,'111111111,111111111,999999991'
Kerr-McGee,ioos:station:wmo:42373:1,2021-02-02T08:45:00Z,27.3539,-94.6254,79.0,14.5,58.5,-9999.0,'111111111,111111111,999999991'
Kerr-McGee,ioos:station:wmo:42373:1,2021-02-02T09:05:00Z,27.3539,-94.6254,79.0,11.6,44.3,-9999.0,'111111111,111111111,999999991'
Kerr-McGee,ioos:station:wmo:42373:1,2021-02-02T09:25:00Z,27.3539,-94.6254,79.0,12.6,46.9,-9999.0,'111111111,111111111,999999991'
Kerr-McGee,ioos:station:wmo:42373:1,2021-02-02T09:45:00Z,27.3539,-94.6254,79.0,13.8,53.0,-9999.0,'111111111,111111111,999999991'
Kerr-McGee,ioos:station:wmo:42373:1,2021-02-02T10:05:00Z,27.3539,-94.6254,79.0,12.8,49.7,-9999.0,'111111111,111111111,999999991'
Kerr-McGee,ioos:station:wmo:42373:1,2021-02-02T10:25:00Z,27.3539,-94.6254,79.0,12.2,53.3,-9999.0,'111111111,111111111,999999991'
Kerr-McGee,ioos:station:wmo:42373:1,2021-02-02T10:45:00Z,27.3539,-94.6254,79.0,13.6,44.1,-9999.0,'111111111,111111111,999999991'
Kerr-McGee,ioos:station:wmo:42373:1,2021-02-02T11:05:00Z,27.3539,-94.6254,79.0,16.3,47.0,-9999.0,'111111111,111111111,999999991'
Kerr-McGee,ioos:station:wmo:42373:1,2021-02-02T11:25:00Z,27.3539,-94.6254,79.0,18.5,53.8,-9999.0,'111111111,111111111,999999991'
Kerr-McGee,ioos:station:wmo:42373:1,2021-02-02T11:45:00Z,27.3539,-94.6254,79.0,16.6,48.4,-9999.0,'111111111,111111111,999999991'
Kerr-McGee,ioos:station:wmo:42373:1,2021-02-02T12:05:00Z,27.3539,-94.6254,79.0,17.6,49.2,-9999.0,'111111111,111111111,999999991'
Kerr-McGee,ioos:station:wmo:42373:1,2021-02-02T12:25:00Z,27.3539,-94.6254,79.0,17.1,44.5,-9999.0,'111111111,111111111,999999991'
Kerr-McGee,ioos:station:wmo:42373:1,2021-02-02T12:45:00Z,27.3539,-94.6254,79.0,15.8,31.8,-9999.0,'111111111,111111111,999999991'
Kerr-McGee,ioos:station:wmo:42373:1,2021-02-02T13:05:00Z,27.3539,-94.6254,79.0,14.8,21.9,-9999.0,'111111111,111111111,999999991'
Kerr-McGee,ioos:station:wmo:42373:1,2021-02-02T13:25:00Z,27.3539,-94.6254,79.0,16.1,34.9,-9999.0,'111111111,111111111,999999991'
Kerr-McGee,ioos:station:wmo:42373:1,2021-02-02T13:45:00Z,27.3539,-94.6254,79.0,16.3,35.7,-9999.0,'111111111,111111111,999999991'
Kerr-McGee,ioos:station:wmo:42373:1,2021-02-02T14:05:00Z,27.3539,-94.6254,79.0,18.4,35.1,-9999.0,'111111111,111111111,999999991'
Kerr-McGee,ioos:station:wmo:42373:1,2021-02-02T14:25:00Z,27.3539,-94.6254,79.0,21.0,41.7,-9999.0,'111111111,111111111,999999991'
Kerr-McGee,ioos:station:wmo:42373:1,2021-02-02T14:45:00Z,27.3539,-94.6254,79.0,24.7,48.4,-9999.0,'111111111,111111111,999999991'
Kerr-McGee,ioos:station:wmo:42373:1,2021-02-02T15:05:00Z,27.3539,-94.6254,79.0,21.4,39.7,-9999.0,'111111111,111111111,999999991'
Kerr-McGee,ioos:station:wmo:42373:1,2021-02-02T15:25:00Z,27.3539,-94.6254,79.0,22.1,43.4,-9999.0,'111111111,111111111,999999991'
Kerr-McGee,ioos:station:wmo:42373:1,2021-02-02T15:45:00Z,27.3539,-94.6254,79.0,22.8,43.6,-9999.0,'111111111,111111111,999999991'
Kerr-McGee,ioos:station:wmo:42373:1,2021-02-02T16:05:00Z,27.3539,-94.6254,79.0,22.9,45.7,-9999.0,'111111111,111111111,999999991'
Kerr-McGee,ioos:station:wmo:42373:1,2021-02-02T16:25:00Z,27.3539,-94.6254,79.0,21.8,41.1,-9999.0,'111111111,111111111,999999991'
Kerr-McGee,ioos:station:wmo:42373:1,2021-02-02T16:45:00Z,27.3539,-94.6254,79.0,25.5,46.3,-9999.0,'111111111,111111111,999999991'
Kerr-McGee,ioos:station:wmo:42373:1,2021-02-02T17:05:00Z,27.3539,-94.6254,79.0,27.9,48.9,-9999.0,'111111111,111111111,999999991'
Kerr-McGee,ioos:station:wmo:42373:1,2021-02-02T17:25:00Z,27.3539,-94.6254,79.0,24.6,39.4,-9999.0,'111111111,111111111,999999991'
Kerr-McGee,ioos:station:wmo:42373:1,2021-02-02T17:45:00Z,27.3539,-94.6254,79.0,19.4,18.1,-9999.0,'111111111,111111111,999999991'
Kerr-McGee,ioos:station:wmo:42373:1,2021-02-02T18:05:00Z,27.3539,-94.6254,79.0,19.3,27.1,-9999.0,'111111111,111111111,999999991'
Kerr-McGee,ioos:station:wmo:42373:1,2021-02-02T18:25:00Z,27.3539,-94.6254,79.0,20.5,29.8,-9999.0,'111111111,111111111,999999991'
Kerr-McGee,ioos:station:wmo:42373:1,2021-02-02T18:45:00Z,27.3539,-94.6254,79.0,17.8,20.8,-9999.0,'111111111,111111111,999999991'
Kerr-McGee,ioos:station:wmo:42373:1,2021-02-02T19:05:00Z,27.3539,-94.6254,79.0,18.1,9.5,-9999.0,'111111111,111111111,999999991'
Kerr-McGee,ioos:station:wmo:42373:1,2021-02-02T19:25:00Z,27.3539,-94.6254,79.0,17.9,8.7,-9999.0,'111111111,111111111,999999991'
Kerr-McGee,ioos:station:wmo:42373:1,2021-02-02T19:45:00Z,27.3539,-94.6254,79.0,16.9,4.1,-9999.0,'111111111,111111111,999999991'
Kerr-McGee,ioos:station:wmo:42373:1,2021-02-02T20:05:00Z,27.3539,-94.6254,79.0,15.7,2.6,-9999.0,'111111111,111111111,999999991'
Kerr-McGee,ioos:station:wmo:42373:1,2021-02-02T20:25:00Z,27.3539,-94.6254,79.0,13.9,4.1,-9999.0,'111111111,111111111,999999991'
Kerr-McGee,ioos:station:wmo:42373:1,2021-02-02T20:45:00Z,27.3539,-94.6254,79.0,10.7,4.8,-9999.0,'111111111,111111111,999999991'
Kerr-McGee,ioos:station:wmo:42373:1,2021-02-02T21:05:00Z,27.3539,-94.6254,79.0,8.4,0.0,-9999.0,'111111111,111441111,999999991'
Kerr-McGee,ioos:station:wmo:42373:1,2021-02-02T21:25:00Z,27.3539,-94.6254,79.0,8.4,336.8,-9999.0,'111111111,111111111,999999991'
Kerr-McGee,ioos:station:wmo:42373:1,2021-02-02T21:45:00Z,27.3539,-94.6254,79.0,7.9,327.9,-9999.0,'111111111,111111111,999999991'
Kerr-McGee,ioos:station:wmo:42373:1,2021-02-02T22:05:00Z,27.3539,-94.6254,79.0,9.7,324.2,-9999.0,'111111111,111111111,999999991'
Kerr-McGee,ioos:station:wmo:42373:1,2021-02-02T22:25:00Z,27.3539,-94.6254,79.0,10.0,338.3,-9999.0,'111111111,111111111,999999991'
Kerr-McGee,ioos:station:wmo:42373:1,2021-02-02T22:45:00Z,27.3539,-94.6254,79.0,11.7,6.9,-9999.0,'111111111,111111111,999999991'
Kerr-McGee,ioos:station:wmo:42373:1,2021-02-02T23:05:00Z,27.3539,-94.6254,79.0,14.4,21.2,-9999.0,'111111111,111111111,999999991'
Kerr-McGee,ioos:station:wmo:42373:1,2021-02-02T23:25:00Z,27.3539,-94.6254,79.0,16.2,29.3,-9999.0,'111111111,111111111,999999991'
Kerr-McGee,ioos:station:wmo:42373:1,2021-02-02T23:45:00Z,27.3539,-94.6254,79.0,17.3,32.2,-9999.0,'111111111,111111111,999999991'
Kerr-McGee,ioos:station:wmo:42373:1,2021-02-03T00:05:00Z,27.3539,-94.6254,79.0,17.0,31.5,-9999.0,'111111111,111111111,999999991'
Kerr-McGee,ioos:station:wmo:42373:1,2021-02-03T00:25:00Z,27.3539,-94.6254,79.0,17.7,33.2,-9999.0,'111111111,111111111,999999991'
Kerr-McGee,ioos:station:wmo:42373:1,2021-02-03T00:45:00Z,27.3539,-94.6254,79.0,17.4,33.5,-9999.0,'111111111,111111111,999999991'
Kerr-McGee,ioos:station:wmo:42373:1,2021-02-03T01:05:00Z,27.3539,-94.6254,79.0,17.9,37.5,-9999.0,'111111111,111111111,999999991'
Kerr-McGee,ioos:station:wmo:42373:1,2021-02-03T01:25:00Z,27.3539,-94.6254,79.0,18.0,41.8,-9999.0,'111111111,111111111,999999991'
Kerr-McGee,ioos:station:wmo:42373:1,2021-02-03T01:45:00Z,27.3539,-94.6254,79.0,16.6,41.1,-9999.0,'111111111,111111111,999999991'
Kerr-McGee,ioos:station:wmo:42373:1,2021-02-03T02:05:00Z,27.3539,-94.6254,79.0,18.0,45.7,-9999.0,'111111111,111111111,999999991'
Kerr-McGee,ioos:station:wmo:42373:1,2021-02-03T02:25:00Z,27.3539,-94.6254,79.0,19.1,49.0,-9999.0,'111111111,111111111,999999991'
Kerr-McGee,ioos:station:wmo:42373:1,2021-02-03T02:45:00Z,27.3539,-94.6254,79.0,19.1,53.1,-9999.0,'111111111,111111111,999999991'
Kerr-McGee,ioos:station:wmo:42373:1,2021-02-03T03:05:00Z,27.3539,-94.6254,79.0,18.7,51.7,-9999.0,'111111111,111111111,999999991'
Kerr-McGee,ioos:station:wmo:42373:1,2021-02-03T03:25:00Z,27.3539,-94.6254,79.0,18.2,49.7,-9999.0,'111111111,111111111,999999991'
Kerr-McGee,ioos:station:wmo:42373:1,2021-02-03T03:45:00Z,27.3539,-94.6254,79.0,14.4,45.0,-9999.0,'111111111,111111111,999999991'
Kerr-McGee,ioos:station:wmo:42373:1,2021-02-03T04:05:00Z,27.3539,-94.6254,79.0,14.9,48.5,-9999.0,'111111111,111111111,999999991'
Kerr-McGee,ioos:station:wmo:42373:1,2021-02-03T04:25:00Z,27.3539,-94.6254,79.0,13.9,47.3,-9999.0,'111111111,111111111,999999991'
Kerr-McGee,ioos:station:wmo:42373:1,2021-02-03T04:45:00Z,27.3539,-94.6254,79.0,12.5,48.9,-9999.0,'111111111,111111111,999999991'
Kerr-McGee,ioos:station:wmo:42373:1,2021-02-03T05:05:00Z,27.3539,-94.6254,79.0,12.0,48.4,-9999.0,'111111111,111111111,999999991'
Kerr-McGee,ioos:station:wmo:42373:1,2021-02-03T05:25:00Z,27.3539,-94.6254,79.0,10.9,45.7,-9999.0,'111111111,111111111,999999991'
Kerr-McGee,ioos:station:wmo:42373:1,2021-02-03T05:45:00Z,27.3539,-94.6254,79.0,12.2,45.0,-9999.0,'111111111,111111111,999999991'
Kerr-McGee,ioos:station:wmo:42373:1,2021-02-03T06:05:00Z,27.3539,-94.6254,79.0,10.9,40.5,-9999.0,'111111111,111111111,999999991'
Kerr-McGee,ioos:station:wmo:42373:1,2021-02-03T06:25:00Z,27.3539,-94.6254,79.0,9.7,35.8,-9999.0,'111111111,111111111,999999991'
Kerr-McGee,ioos:station:wmo:42373:1,2021-02-03T06:45:00Z,27.3539,-94.6254,79.0,8.2,23.7,-9999.0,'111111111,111111111,999999991'
Kerr-McGee,ioos:station:wmo:42373:1,2021-02-03T07:05:00Z,27.3539,-94.6254,79.0,6.4,7.2,-9999.0,'111111111,111111111,999999991'
Kerr-McGee,ioos:station:wmo:42373:1,2021-02-03T07:25:00Z,27.3539,-94.6254,79.0,6.3,354.6,-9999.0,'111111111,111111111,999999991'
Kerr-McGee,ioos:station:wmo:42373:1,2021-02-03T07:45:00Z,27.3539,-94.6254,79.0,7.4,357.7,-9999.0,'111111111,111111111,999999991'
Kerr-McGee,ioos:station:wmo:42373:1,2021-02-03T08:05:00Z,27.3539,-94.6254,79.0,7.3,355.3,-9999.0,'111111111,111111111,999999991'
Kerr-McGee,ioos:station:wmo:42373:1,2021-02-03T08:25:00Z,27.3539,-94.6254,79.0,7.3,351.3,-9999.0,'111111111,111111111,999999991'
Kerr-McGee,ioos:station:wmo:42373:1,2021-02-03T08:45:00Z,27.3539,-94.6254,79.0,7.5,357.7,-9999.0,'111111111,111111111,999999991'
Kerr-McGee,ioos:station:wmo:42373:1,2021-02-03T09:05:00Z,27.3539,-94.6254,79.0,7.5,4.6,-9999.0,'111111111,111111111,999999991'
Kerr-McGee,ioos:station:wmo:42373:1,2021-02-03T09:25:00Z,27.3539,-94.6254,79.0,6.8,358.3,-9999.0,'111111111,111111111,999999991'
Kerr-McGee,ioos:station:wmo:42373:1,2021-02-03T09:45:00Z,27.3539,-94.6254,79.0,6.6,347.7,-9999.0,'111111111,111111111,999999991'
Kerr-McGee,ioos:station:wmo:42373:1,2021-02-03T10:05:00Z,27.3539,-94.6254,79.0,5.5,0.0,-9999.0,'111111111,111441111,999999991'
Kerr-McGee,ioos:station:wmo:42373:1,2021-02-03T10:25:00Z,27.3539,-94.6254,79.0,8.0,340.2,-9999.0,'111111111,111111111,999999991'
Kerr-McGee,ioos:station:wmo:42373:1,2021-02-03T10:45:00Z,27.3539,-94.6254,79.0,10.5,2.7,-9999.0,'111111111,111111111,999999991'
Kerr-McGee,ioos:station:wmo:42373:1,2021-02-03T11:05:00Z,27.3539,-94.6254,79.0,13.0,333.4,-9999.0,'111111111,111111111,999999991'
Kerr-McGee,ioos:station:wmo:42373:1,2021-02-03T11:25:00Z,27.3539,-94.6254,79.0,14.3,341.2,-9999.0,'111111111,111111111,999999991'
Kerr-McGee,ioos:station:wmo:42373:1,2021-02-03T11:45:00Z,27.3539,-94.6254,79.0,13.9,340.3,-9999.0,'111111111,111111111,999999991'
Kerr-McGee,ioos:station:wmo:42373:1,2021-02-03T12:05:00Z,27.3539,-94.6254,79.0,12.8,340.9,-9999.0,'111111111,111111111,999999991'
Kerr-McGee,ioos:station:wmo:42373:1,2021-02-03T12:25:00Z,27.3539,-94.6254,79.0,12.7,346.3,-9999.0,'111111111,111111111,999999991'
Kerr-McGee,ioos:station:wmo:42373:1,2021-02-03T12:45:00Z,27.3539,-94.6254,79.0,12.2,351.5,-9999.0,'111111111,111111111,999999991'